• In Italy
  • List of Countries
  • For 7 days
  • Water Temperature
  • Satellite Maps
  • Weather Map
  • Weather Widgets
  • user-avatar
    Login

    Hourly Weather Barisal

    Today, 14 December, Thursday

    Time Temperature Precipitation Wind Pressure Humidity
    00:00 +24°C° 0 mm 1 mps 760 mmHg 67%
    01:00 +23°C° 0 mm 1 mps 760 mmHg 69%
    02:00 +23°C° 0 mm 2 mps 760 mmHg 70%
    03:00 +23°C° 0 mm 2 mps 760 mmHg 71%
    04:00 +21°C° 0 mm 2 mps 760 mmHg 72%
    05:00 +21°C° 0 mm 2 mps 760 mmHg 73%
    06:00 +22°C° 0 mm 1 mps 760 mmHg 74%
    07:00 +23°C° 0 mm 1 mps 761 mmHg 69%
    08:00 +25°C° 0 mm 2 mps 761 mmHg 63%
    09:00 +26°C° 0 mm 2 mps 762 mmHg 58%
    10:00 +28°C° 0 mm 2 mps 762 mmHg 53%
    11:00 +29°C° 0 mm 3 mps 761 mmHg 47%
    12:00 +32°C° 0 mm 4 mps 761 mmHg 39%
    13:00 +32°C° 0 mm 4 mps 761 mmHg 39%
    14:00 +32°C° 0 mm 4 mps 760 mmHg 39%
    15:00 +32°C° 0 mm 4 mps 760 mmHg 38%
    16:00 +29°C° 0 mm 3 mps 760 mmHg 42%
    17:00 +27°C° 0 mm 2 mps 760 mmHg 46%
    18:00 +26°C° 0 mm 2 mps 760 mmHg 50%
    19:00 +25°C° 0 mm 1 mps 760 mmHg 51%
    20:00 +25°C° 0 mm 1 mps 761 mmHg 53%
    21:00 +24°C° 0 mm 1 mps 761 mmHg 54%
    22:00 +24°C° 0 mm 1 mps 761 mmHg 55%
    23:00 +23°C° 0 mm 2 mps 761 mmHg 56%

    Tomorrow, 15 December, Friday

    Time Temperature Precipitation Wind Pressure Humidity
    00:00 +23°C° 0 mm 2 mps 761 mmHg 57%
    01:00 +21°C° 0 mm 2 mps 761 mmHg 58%
    02:00 +21°C° 0 mm 2 mps 760 mmHg 59%
    03:00 +21°C° 0 mm 2 mps 760 mmHg 60%
    04:00 +21°C° 0 mm 1 mps 760 mmHg 61%
    05:00 +21°C° 0 mm 1 mps 760 mmHg 62%
    06:00 +21°C° 0 mm 1 mps 760 mmHg 63%
    07:00 +21°C° 0 mm 2 mps 761 mmHg 60%
    08:00 +24°C° 0 mm 2 mps 761 mmHg 56%
    09:00 +25°C° 0 mm 2 mps 762 mmHg 53%
    10:00 +27°C° 0 mm 3 mps 762 mmHg 48%
    11:00 +28°C° 0 mm 4 mps 762 mmHg 43%
    12:00 +30°C° 0 mm 4 mps 761 mmHg 38%
    13:00 +30°C° 0 mm 4 mps 761 mmHg 37%
    14:00 +30°C° 0 mm 4 mps 760 mmHg 36%
    15:00 +30°C° 0 mm 4 mps 760 mmHg 35%
    16:00 +28°C° 0 mm 3 mps 760 mmHg 39%
    17:00 +26°C° 0 mm 3 mps 760 mmHg 42%
    18:00 +25°C° 0 mm 2 mps 760 mmHg 46%
    19:00 +24°C° 0 mm 2 mps 761 mmHg 46%
    20:00 +23°C° 0 mm 2 mps 761 mmHg 47%
    21:00 +23°C° 0 mm 2 mps 762 mmHg 47%
    22:00 +21°C° 0 mm 2 mps 762 mmHg 47%
    23:00 +21°C° 0 mm 2 mps 762 mmHg 47%

    Day after tomorrow, 16 December, Saturday

    Time Temperature Precipitation Wind Pressure Humidity
    00:00 +20°C° 0 mm 3 mps 762 mmHg 47%
    01:00 +20°C° 0 mm 3 mps 762 mmHg 48%
    02:00 +19°C° 0 mm 3 mps 761 mmHg 48%
    03:00 +19°C° 0 mm 3 mps 761 mmHg 49%
    04:00 +18°C° 0 mm 3 mps 761 mmHg 50%
    05:00 +18°C° 0 mm 3 mps 761 mmHg 51%
    06:00 +17°C° 0 mm 3 mps 761 mmHg 52%
    07:00 +19°C° 0 mm 3 mps 762 mmHg 50%
    08:00 +21°C° 0 mm 3 mps 763 mmHg 47%
    09:00 +22°C° 0 mm 3 mps 763 mmHg 45%
    10:00 +25°C° 0 mm 3 mps 763 mmHg 41%
    11:00 +26°C° 0 mm 3 mps 762 mmHg 37%
    12:00 +28°C° 0 mm 4 mps 762 mmHg 33%
    13:00 +28°C° 0 mm 4 mps 761 mmHg 32%
    14:00 +28°C° 0 mm 3 mps 761 mmHg 32%
    15:00 +29°C° 0 mm 3 mps 760 mmHg 32%
    16:00 +27°C° 0 mm 3 mps 760 mmHg 36%
    17:00 +25°C° 0 mm 3 mps 760 mmHg 40%
    18:00 +23°C° 0 mm 2 mps 761 mmHg 43%
    19:00 +21°C° 0 mm 2 mps 761 mmHg 45%
    20:00 +21°C° 0 mm 2 mps 762 mmHg 46%
    21:00 +20°C° 0 mm 2 mps 762 mmHg 47%
    22:00 +20°C° 0 mm 2 mps 762 mmHg 48%
    23:00 +19°C° 0 mm 2 mps 762 mmHg 49%

    17 December, Sunday

    Time Temperature Precipitation Wind Pressure Humidity
    00:00 +19°C° 0 mm 2 mps 762 mmHg 49%
    01:00 +18°C° 0 mm 2 mps 762 mmHg 50%
    02:00 +18°C° 0 mm 2 mps 762 mmHg 51%
    03:00 +18°C° 0 mm 2 mps 762 mmHg 52%
    04:00 +17°C° 0 mm 2 mps 762 mmHg 54%
    05:00 +17°C° 0 mm 2 mps 762 mmHg 55%
    06:00 +17°C° 0 mm 2 mps 762 mmHg 57%
    07:00 +18°C° 0 mm 2 mps 763 mmHg 55%
    08:00 +20°C° 0 mm 2 mps 764 mmHg 52%
    09:00 +23°C° 0 mm 2 mps 764 mmHg 50%
    10:00 +24°C° 0 mm 2 mps 764 mmHg 45%
    11:00 +26°C° 0 mm 2 mps 763 mmHg 41%
    12:00 +27°C° 0 mm 2 mps 763 mmHg 36%
    13:00 +28°C° 0 mm 2 mps 762 mmHg 35%
    14:00 +28°C° 0 mm 2 mps 762 mmHg 33%
    15:00 +29°C° 0 mm 1 mps 761 mmHg 32%
    16:00 +27°C° 0 mm 1 mps 761 mmHg 36%
    17:00 +25°C° 0 mm 1 mps 762 mmHg 40%
    18:00 +23°C° 0 mm 1 mps 762 mmHg 44%
    19:00 +23°C° 0 mm 1 mps 762 mmHg 46%
    20:00 +22°C° 0 mm 1 mps 763 mmHg 48%
    21:00 +21°C° 0 mm 1 mps 763 mmHg 49%
    22:00 +20°C° 0 mm 2 mps 763 mmHg 51%
    23:00 +20°C° 0 mm 2 mps 763 mmHg 52%

    18 December, Monday

    Time Temperature Precipitation Wind Pressure Humidity
    00:00 +19°C° 0 mm 2 mps 763 mmHg 53%
    01:00 +19°C° 0 mm 2 mps 762 mmHg 55%
    02:00 +18°C° 0 mm 2 mps 762 mmHg 57%
    03:00 +18°C° 0 mm 2 mps 762 mmHg 58%
    04:00 +18°C° 0 mm 2 mps 762 mmHg 60%
    05:00 +18°C° 0 mm 2 mps 762 mmHg 62%
    06:00 +17°C° 0 mm 2 mps 763 mmHg 64%
    07:00 +19°C° 0 mm 2 mps 763 mmHg 60%
    08:00 +21°C° 0 mm 2 mps 764 mmHg 57%
    09:00 +23°C° 0 mm 2 mps 764 mmHg 53%
    10:00 +25°C° 0 mm 2 mps 764 mmHg 48%
    11:00 +26°C° 0 mm 2 mps 763 mmHg 43%
    12:00 +28°C° 0 mm 2 mps 763 mmHg 38%
    13:00 +28°C° 0 mm 2 mps 763 mmHg 36%
    14:00 +29°C° 0 mm 1 mps 762 mmHg 35%
    15:00 +29°C° 0 mm 1 mps 761 mmHg 34%
    16:00 +27°C° 0 mm 1 mps 761 mmHg 38%
    17:00 +26°C° 0 mm 1 mps 762 mmHg 42%
    18:00 +24°C° 0 mm 1 mps 762 mmHg 47%
    19:00 +23°C° 0 mm 1 mps 762 mmHg 48%
    20:00 +23°C° 0 mm 1 mps 763 mmHg 50%
    21:00 +22°C° 0 mm 1 mps 763 mmHg 52%
    22:00 +22°C° 0 mm 1 mps 763 mmHg 53%
    23:00 +21°C° 0 mm 1 mps 763 mmHg 53%

    19 December, Tuesday

    Time Temperature Precipitation Wind Pressure Humidity
    00:00 +21°C° 0 mm 1 mps 762 mmHg 54%
    01:00 +19°C° 0 mm 2 mps 762 mmHg 56%
    02:00 +19°C° 0 mm 2 mps 762 mmHg 57%
    03:00 +19°C° 0 mm 2 mps 762 mmHg 59%
    04:00 +18°C° 0 mm 2 mps 762 mmHg 61%
    05:00 +18°C° 0 mm 2 mps 762 mmHg 63%
    06:00 +19°C° 0 mm 1 mps 762 mmHg 65%
    07:00 +19°C° 0 mm 2 mps 763 mmHg 61%
    08:00 +21°C° 0 mm 2 mps 763 mmHg 57%
    09:00 +23°C° 0 mm 2 mps 764 mmHg 53%
    10:00 +25°C° 0 mm 2 mps 764 mmHg 49%
    11:00 +26°C° 0 mm 2 mps 764 mmHg 44%
    12:00 +28°C° 0 mm 2 mps 763 mmHg 39%
    13:00 +28°C° 0 mm 2 mps 763 mmHg 37%
    14:00 +29°C° 0 mm 2 mps 762 mmHg 36%
    15:00 +29°C° 0 mm 2 mps 761 mmHg 35%
    16:00 +27°C° 0 mm 2 mps 761 mmHg 39%
    17:00 +26°C° 0 mm 1 mps 762 mmHg 43%
    18:00 +24°C° 0 mm 1 mps 762 mmHg 47%
    19:00 +23°C° 0 mm 1 mps 762 mmHg 49%
    20:00 +23°C° 0 mm 1 mps 762 mmHg 50%
    21:00 +22°C° 0 mm 1 mps 763 mmHg 52%
    22:00 +22°C° 0 mm 1 mps 763 mmHg 52%
    23:00 +21°C° 0 mm 1 mps 762 mmHg 53%
    Show more